Hourly Weather Gogotl

Today, 18 May, Tuesday

Time Temperature Precipitation Wind Pressure Humidity
00:00 +14°C° 0 mm 3 mps 636 mmHg 55%
01:00 +14°C° 0.1 mm 3 mps 636 mmHg 60%
02:00 +13°C° 0.1 mm 3 mps 635 mmHg 65%
03:00 +12°C° 0.1 mm 3 mps 635 mmHg 71%
04:00 +12°C° 0.1 mm 3 mps 635 mmHg 71%
05:00 +14°C° 0.1 mm 2 mps 636 mmHg 71%
06:00 +14°C° 0.1 mm 2 mps 636 mmHg 71%
07:00 +20°C° 0 mm 3 mps 637 mmHg 44%
08:00 +19°C° 0 mm 2 mps 637 mmHg 46%
09:00 +19°C° 0 mm 2 mps 637 mmHg 48%
10:00 +19°C° 0.4 mm 2 mps 637 mmHg 48%
11:00 +20°C° 0.4 mm 3 mps 637 mmHg 47%
12:00 +20°C° 0.4 mm 3 mps 638 mmHg 47%
13:00 +19°C° 0.9 mm 3 mps 638 mmHg 50%
14:00 +19°C° 0.9 mm 3 mps 638 mmHg 53%
15:00 +18°C° 0.9 mm 3 mps 638 mmHg 56%
16:00 +18°C° 0.7 mm 3 mps 638 mmHg 60%
17:00 +17°C° 0.7 mm 2 mps 638 mmHg 64%
18:00 +16°C° 0.7 mm 2 mps 639 mmHg 68%
19:00 +15°C° 0 mm 1 mps 639 mmHg 74%
20:00 +14°C° 0 mm 1 mps 639 mmHg 79%
21:00 +12°C° 0 mm 1 mps 639 mmHg 85%
22:00 +12°C° 0 mm 1 mps 638 mmHg 83%
23:00 +12°C° 0 mm 1 mps 638 mmHg 80%

Tomorrow, 19 May, Wednesday

Time Temperature Precipitation Wind Pressure Humidity
00:00 +10°C° 0 mm 2 mps 638 mmHg 78%
01:00 +10°C° 0 mm 2 mps 638 mmHg 74%
02:00 +10°C° 0 mm 2 mps 637 mmHg 70%
03:00 +10°C° 0 mm 2 mps 637 mmHg 66%
04:00 +10°C° 0 mm 2 mps 637 mmHg 64%
05:00 +12°C° 0 mm 2 mps 637 mmHg 61%
06:00 +13°C° 0 mm 2 mps 638 mmHg 59%
07:00 +15°C° 0 mm 2 mps 638 mmHg 52%
08:00 +18°C° 0 mm 2 mps 638 mmHg 45%
09:00 +20°C° 0 mm 2 mps 638 mmHg 38%
10:00 +21°C° 0 mm 2 mps 638 mmHg 37%
11:00 +23°C° 0 mm 2 mps 638 mmHg 36%
12:00 +24°C° 0 mm 2 mps 639 mmHg 35%
13:00 +24°C° 0 mm 2 mps 639 mmHg 36%
14:00 +25°C° 0 mm 3 mps 639 mmHg 37%
15:00 +25°C° 0 mm 3 mps 639 mmHg 37%
16:00 +22°C° 0.5 mm 3 mps 639 mmHg 49%
17:00 +20°C° 0.5 mm 3 mps 639 mmHg 61%
18:00 +18°C° 0.5 mm 3 mps 639 mmHg 72%
19:00 +16°C° 0.5 mm 2 mps 640 mmHg 78%
20:00 +15°C° 0.5 mm 1 mps 640 mmHg 84%
21:00 +13°C° 0.5 mm 1 mps 640 mmHg 90%
22:00 +13°C° 0.1 mm 1 mps 640 mmHg 90%
23:00 +13°C° 0.1 mm 1 mps 640 mmHg 91%

Day after tomorrow, 20 May, Thursday

Time Temperature Precipitation Wind Pressure Humidity
00:00 +13°C° 0.1 mm 1 mps 640 mmHg 91%
01:00 +12°C° 0.1 mm 1 mps 640 mmHg 91%
02:00 +12°C° 0.1 mm 1 mps 640 mmHg 91%
03:00 +12°C° 0.1 mm 1 mps 640 mmHg 91%
04:00 +12°C° 0 mm 1 mps 640 mmHg 88%
05:00 +12°C° 0 mm 1 mps 641 mmHg 85%
06:00 +12°C° 0 mm 1 mps 641 mmHg 82%
07:00 +13°C° 0 mm 2 mps 641 mmHg 74%
08:00 +14°C° 0 mm 2 mps 641 mmHg 67%
09:00 +15°C° 0 mm 2 mps 642 mmHg 59%
10:00 +16°C° 0 mm 2 mps 642 mmHg 56%
11:00 +18°C° 0 mm 3 mps 642 mmHg 53%
12:00 +19°C° 0 mm 3 mps 642 mmHg 50%
13:00 +19°C° 0 mm 3 mps 642 mmHg 49%
14:00 +20°C° 0 mm 3 mps 642 mmHg 49%
15:00 +20°C° 0 mm 3 mps 642 mmHg 48%
16:00 +20°C° 0 mm 2 mps 642 mmHg 53%
17:00 +19°C° 0 mm 2 mps 642 mmHg 58%
18:00 +18°C° 0 mm 2 mps 642 mmHg 63%
19:00 +17°C° 0 mm 2 mps 642 mmHg 66%
20:00 +15°C° 0 mm 2 mps 642 mmHg 70%
21:00 +14°C° 0 mm 2 mps 642 mmHg 74%
22:00 +14°C° 0 mm 2 mps 642 mmHg 72%
23:00 +12°C° 0 mm 3 mps 642 mmHg 71%

21 May, Friday

Time Temperature Precipitation Wind Pressure Humidity
00:00 +12°C° 0 mm 3 mps 642 mmHg 70%
01:00 +12°C° 0 mm 3 mps 641 mmHg 69%
02:00 +12°C° 0 mm 3 mps 641 mmHg 69%
03:00 +12°C° 0 mm 3 mps 641 mmHg 68%
04:00 +14°C° 0 mm 2 mps 642 mmHg 66%
05:00 +15°C° 0 mm 2 mps 642 mmHg 64%
06:00 +16°C° 0 mm 2 mps 642 mmHg 62%
07:00 +18°C° 0 mm 2 mps 643 mmHg 54%
08:00 +22°C° 0 mm 1 mps 643 mmHg 45%
09:00 +24°C° 0 mm 1 mps 643 mmHg 37%
10:00 +25°C° 0 mm 1 mps 644 mmHg 35%
11:00 +26°C° 0 mm 2 mps 644 mmHg 33%
12:00 +27°C° 0 mm 2 mps 644 mmHg 31%
13:00 +27°C° 0 mm 2 mps 644 mmHg 31%
14:00 +28°C° 0 mm 2 mps 644 mmHg 31%
15:00 +28°C° 0 mm 2 mps 644 mmHg 32%
16:00 +27°C° 0 mm 2 mps 643 mmHg 38%
17:00 +25°C° 0 mm 2 mps 643 mmHg 45%
18:00 +24°C° 0 mm 1 mps 643 mmHg 51%
19:00 +23°C° 0 mm 2 mps 643 mmHg 54%
20:00 +20°C° 0 mm 2 mps 643 mmHg 56%
21:00 +18°C° 0 mm 2 mps 643 mmHg 58%
22:00 +17°C° 0 mm 2 mps 642 mmHg 57%
23:00 +17°C° 0 mm 2 mps 642 mmHg 56%

22 May, Saturday

Time Temperature Precipitation Wind Pressure Humidity
00:00 +16°C° 0 mm 3 mps 642 mmHg 54%
01:00 +16°C° 0 mm 3 mps 642 mmHg 52%
02:00 +16°C° 0 mm 3 mps 642 mmHg 51%
03:00 +14°C° 0 mm 3 mps 641 mmHg 49%
04:00 +16°C° 0 mm 3 mps 642 mmHg 49%
05:00 +17°C° 0 mm 2 mps 642 mmHg 50%
06:00 +18°C° 0 mm 2 mps 642 mmHg 50%
07:00 +20°C° 0 mm 2 mps 642 mmHg 43%
08:00 +23°C° 0 mm 1 mps 643 mmHg 36%
09:00 +26°C° 0 mm 1 mps 643 mmHg 29%
10:00 +27°C° 0 mm 2 mps 643 mmHg 29%
11:00 +28°C° 0 mm 2 mps 643 mmHg 29%
12:00 +28°C° 0 mm 2 mps 643 mmHg 29%
13:00 +28°C° 0 mm 3 mps 643 mmHg 31%
14:00 +28°C° 0 mm 3 mps 643 mmHg 34%
15:00 +28°C° 0 mm 3 mps 642 mmHg 36%
16:00 +29°C° 0 mm 2 mps 641 mmHg 33%
17:00 +28°C° 0 mm 2 mps 641 mmHg 40%
18:00 +27°C° 0 mm 2 mps 641 mmHg 46%
19:00 +25°C° 0 mm 2 mps 640 mmHg 49%
20:00 +22°C° 0 mm 3 mps 640 mmHg 51%
21:00 +20°C° 0 mm 3 mps 640 mmHg 54%
22:00 +19°C° 0 mm 3 mps 640 mmHg 58%
23:00 +18°C° 0 mm 3 mps 640 mmHg 63%

23 May, Sunday

Time Temperature Precipitation Wind Pressure Humidity
00:00 +17°C° 0 mm 4 mps 639 mmHg 67%
01:00 +17°C° 0 mm 3 mps 639 mmHg 64%
02:00 +17°C° 0 mm 3 mps 639 mmHg 61%
03:00 +17°C° 0 mm 3 mps 639 mmHg 58%
04:00 +17°C° 0 mm 3 mps 639 mmHg 58%
05:00 +18°C° 0 mm 3 mps 639 mmHg 58%
06:00 +19°C° 0 mm 3 mps 639 mmHg 58%
07:00 +21°C° 0 mm 2 mps 639 mmHg 50%
08:00 +25°C° 0 mm 2 mps 639 mmHg 42%
09:00 +27°C° 0 mm 1 mps 640 mmHg 34%
10:00 +28°C° 0 mm 1 mps 640 mmHg 32%
11:00 +29°C° 0 mm 2 mps 640 mmHg 30%
12:00 +30°C° 0 mm 2 mps 640 mmHg 27%
13:00 +30°C° 0 mm 2 mps 639 mmHg 27%
14:00 +31°C° 0 mm 2 mps 639 mmHg 26%
15:00 +31°C° 0 mm 2 mps 639 mmHg 25%
16:00 +29°C° 0 mm 2 mps 639 mmHg 34%
17:00 +28°C° 0 mm 2 mps 638 mmHg 43%
18:00 +26°C° 0 mm 2 mps 638 mmHg 52%
19:00 +24°C° 0 mm 3 mps 638 mmHg 54%
20:00 +21°C° 0 mm 3 mps 638 mmHg 56%
21:00 +19°C° 0 mm 3 mps 638 mmHg 58%
22:00 +18°C° 0 mm 3 mps 638 mmHg 58%
23:00 +18°C° 0 mm 3 mps 638 mmHg 57%
Show more